QPF
0.08 0.09 0.08 0.07 0.07 0.06 0.06 0.05 0.04 0.03 0.02 0.01 0.01 0.01 0.01 0.01 0.01 0.02 0.02 0.04 0.04 0.03 0.03 0.03 0.03 0.03 0.02 0.02 0.02 0.02 0.02 0.02 0.01 0.01 0.01 0.02 0.03 0.03 0.04 0.04 0.04 0.04 0.04
0.13 0.15 0.12 0.09 0.06 0.05 0.04 0.04 0.03 0.02 0.01 0.01 0.01 0.01 0.01 0.01 0.03 0.03 0.01 0.03 0.03 0.03 0.03 0.03 0.02 0.02 0.02 0.02 0.02 0.01 0.01 0.02 0.03 0.02 0.01 0.02 0.03 0.04 0.05 0.05 0.04 0.04 0.03
0.14 0.14 0.11 0.08 0.05 0.04 0.04 0.03 0.03 0.03 0.02 0.02 0.02 0.01 0.01 0.02 0.03 0.02 0.03 0.02 0.02 0.01 0.02 0.01 0.01 0.02 0.02 0.02 0.03 0.02 0.02 0.03 0.03 0.03 0.02 0.02 0.03 0.04 0.06 0.07 0.04 0.03 0.03
0.09 0.08 0.08 0.08 0.07 0.06 0.04 0.04 0.04 0.04 0.03 0.02 0.02 0.01 0.01 0.02 0.02 0.02 0.02 0.02 0.02 0.02 0.01 0.02 0.01 0.02 0.02 0.03 0.04 0.03 0.03 0.03 0.03 0.03 0.03 0.04 0.07 0.08 0.07 0.07 0.04 0.02 0.03
0.07 0.07 0.07 0.05 0.04 0.04 0.05 0.05 0.04 0.03 0.02 0.02 0.01 0.01 0.03 0.03 0.02 0.03 0.03 0.03 0.03 0.02 0.02 0.03 0.03 0.04 0.03 0.04 0.04 0.03 0.05 0.04 0.04 0.04 0.04 0.06 0.09 0.10 0.08 0.06 0.04 0.03 0.03
0.06 0.06 0.05 0.06 0.08 0.10 0.09 0.08 0.07 0.05 0.04 0.04 0.03 0.03 0.03 0.04 0.04 0.04 0.04 0.04 0.04 0.03 0.03 0.03 0.03 0.04 0.04 0.03 0.04 0.04 0.05 0.04 0.03 0.03 0.03 0.03 0.05 0.06 0.05 0.05 0.04 0.04 0.03
0.06 0.07 0.08 0.15 0.19 0.19 0.16 0.10 0.07 0.06 0.05 0.04 0.03 0.03 0.03 0.03 0.04 0.04 0.05 0.06 0.05 0.04 0.04 0.04 0.03 0.03 0.03 0.03 0.04 0.05 0.05 0.05 0.04 0.04 0.03 0.02 0.03 0.03 0.04 0.04 0.03 0.03 0.03
0.08 0.08 0.10 0.12 0.13 0.13 0.10 0.09 0.07 0.04 0.03 0.02 0.02 0.03 0.03 0.02 0.03 0.05 0.07 0.08 0.07 0.06 0.06 0.05 0.03 0.02 0.02 0.02 0.03 0.04 0.05 0.05 0.05 0.04 0.04 0.03 0.03 0.04 0.05 0.05 0.04 0.04 0.04
0.12 0.12 0.10 0.07 0.06 0.06 0.07 0.07 0.05 0.04 0.03 0.03 0.04 0.04 0.03 0.03 0.04 0.05 0.06 0.05 0.04 0.04 0.04 0.04 0.03 0.03 0.03 0.03 0.04 0.05 0.06 0.06 0.06 0.06 0.06 0.05 0.05 0.05 0.06 0.06 0.05 0.05 0.05
0.18 0.15 0.10 0.07 0.04 0.03 0.03 0.04 0.04 0.03 0.03 0.04 0.05 0.05 0.05 0.04 0.05 0.05 0.04 0.04 0.03 0.04 0.05 0.05 0.05 0.04 0.04 0.05 0.05 0.05 0.05 0.06 0.06 0.07 0.07 0.08 0.07 0.08 0.07 0.06 0.05 0.06 0.05
0.14 0.13 0.12 0.09 0.06 0.04 0.03 0.03 0.04 0.04 0.05 0.05 0.06 0.06 0.06 0.05 0.05 0.05 0.04 0.04 0.05 0.06 0.06 0.05 0.05 0.05 0.05 0.05 0.05 0.05 0.04 0.04 0.04 0.05 0.06 0.06 0.07 0.07 0.07 0.07 0.07 0.06 0.06
0.11 0.11 0.11 0.12 0.11 0.08 0.07 0.06 0.06 0.06 0.07 0.07 0.06 0.05 0.05 0.04 0.04 0.05 0.04 0.04 0.04 0.03 0.02 0.02 0.02 0.02 0.02 0.02 0.02 0.02 0.02 0.03 0.03 0.04 0.05 0.04 0.04 0.04 0.05 0.06 0.08 0.10 0.09
0.08 0.09 0.09 0.11 0.18 0.16 0.12 0.10 0.10 0.09 0.08 0.07 0.06 0.05 0.06 0.06 0.05 0.04 0.04 0.03 0.02 0.01 0.01 0.01 0.01 0.01 0.01 0.01 0.01 0.01 0.02 0.02 0.02 0.02 0.02 0.02 0.03 0.03 0.03 0.03 0.05 0.06 0.07
0.04 0.05 0.06 0.08 0.11 0.16 0.15 0.13 0.11 0.11 0.15 0.16 0.13 0.09 0.08 0.07 0.07 0.07 0.06 0.05 0.03 0.02 0.01 0.01 0.01 0.01 0.01 0.01 0.01 0.01 0.01 0.01 0.01 0.01 0.01 0.01 0.02 0.02 0.02 0.02 0.02 0.03 0.04
0.03 0.03 0.04 0.06 0.09 0.10 0.12 0.12 0.11 0.08 0.08 0.10 0.12 0.13 0.12 0.10 0.10 0.10 0.08 0.06 0.04 0.03 0.03 0.02 0.01 0.01 0.01 0.01 0.01 0.01 0.01 0.01 0.01 0.01 0.01 0.01 0.01 0.02 0.02 0.02 0.03 0.03 0.03
0.03 0.04 0.03 0.04 0.05 0.06 0.07 0.08 0.06 0.05 0.05 0.05 0.07 0.08 0.10 0.11 0.12 0.14 0.13 0.09 0.07 0.06 0.05 0.02 0.02 0.02 0.03 0.03 0.03 0.02 0.02 0.02 0.01 0.01 0.01 0.01 0.01 0.02 0.02 0.02 0.02 0.02 0.02
0.05 0.05 0.04 0.04 0.03 0.04 0.04 0.05 0.05 0.04 0.04 0.05 0.05 0.06 0.07 0.08 0.10 0.13 0.15 0.14 0.11 0.10 0.07 0.05 0.05 0.04 0.05 0.06 0.06 0.04 0.03 0.03 0.03 0.03 0.02 0.02 0.02 0.02 0.02 0.02 0.02 0.02 0.02
0.05 0.05 0.04 0.05 0.05 0.04 0.03 0.03 0.03 0.03 0.03 0.04 0.04 0.05 0.06 0.07 0.08 0.09 0.11 0.12 0.11 0.09 0.07 0.08 0.09 0.08 0.07 0.06 0.05 0.05 0.05 0.04 0.04 0.04 0.04 0.03 0.02 0.03 0.03 0.03 0.03 0.03 0.02
0.04 0.05 0.05 0.05 0.05 0.04 0.04 0.04 0.03 0.03 0.04 0.04 0.05 0.05 0.06 0.07 0.08 0.10 0.11 0.11 0.09 0.08 0.07 0.07 0.06 0.06 0.06 0.05 0.05 0.05 0.06 0.06 0.05 0.04 0.04 0.03 0.03 0.04 0.04 0.04 0.03 0.03 0.03
0.04 0.05 0.06 0.06 0.05 0.06 0.05 0.04 0.04 0.03 0.03 0.04 0.05 0.05 0.06 0.06 0.06 0.06 0.07 0.07 0.08 0.07 0.06 0.05 0.05 0.05 0.04 0.04 0.04 0.04 0.05 0.06 0.05 0.04 0.04 0.04 0.04 0.04 0.03 0.03 0.03 0.03 0.03
0.03 0.03 0.04 0.04 0.04 0.04 0.05 0.04 0.04 0.04 0.03 0.03 0.03 0.04 0.04 0.04 0.03 0.04 0.04 0.05 0.06 0.06 0.06 0.07 0.07 0.07 0.07 0.06 0.06 0.05 0.05 0.06 0.05 0.04 0.04 0.04 0.03 0.03 0.03 0.04 0.05 0.06 0.06
0.02 0.02 0.02 0.01 0.02 0.02 0.02 0.02 0.02 0.02 0.02 0.03 0.02 0.01 0.01 0.02 0.02 0.02 0.02 0.03 0.03 0.03 0.04 0.04 0.05 0.06 0.07 0.07 0.07 0.08 0.08 0.10 0.09 0.06 0.05 0.04 0.03 0.03 0.04 0.05 0.06 0.06 0.06
0.01 0.01 0.01 0.01 0.02 0.02 0.01 0.01 0.01 0.01 0.01 0.01 0.01 0.00 0.00 0.01 0.01 0.02 0.02 0.02 0.02 0.02 0.02 0.02 0.03 0.03 0.03 0.03 0.04 0.05 0.06 0.09 0.12 0.12 0.11 0.09 0.08 0.06 0.06 0.07 0.07 0.07 0.06
0.00 0.01 0.01 0.01 0.02 0.02 0.02 0.02 0.02 0.02 0.02 0.02 0.01 0.01 0.01 0.00 0.01 0.02 0.02 0.03 0.03 0.03 0.02 0.02 0.03 0.03 0.03 0.03 0.03 0.04 0.04 0.04 0.05 0.07 0.07 0.07 0.07 0.06 0.06 0.08 0.08 0.07 0.07
0.00 0.00 0.01 0.01 0.01 0.02 0.02 0.02 0.02 0.02 0.02 0.02 0.01 0.01 0.01 0.01 0.01 0.01 0.02 0.03 0.04 0.04 0.04 0.04 0.04 0.04 0.03 0.03 0.03 0.03 0.04 0.05 0.05 0.05 0.05 0.04 0.04 0.04 0.05 0.05 0.05 0.05 0.06
0.00 0.00 0.01 0.01 0.01 0.02 0.03 0.03 0.02 0.02 0.03 0.02 0.02 0.02 0.01 0.01 0.01 0.01 0.01 0.01 0.02 0.03 0.04 0.04 0.05 0.05 0.04 0.03 0.03 0.02 0.03 0.04 0.05 0.06 0.05 0.03 0.04 0.04 0.04 0.04 0.04 0.05 0.05
MSLP
1005.93 1006.82 1007.72 1008.56 1009.29 1009.89 1010.35 1010.70 1010.98 1011.23 1011.49 1011.77 1012.09 1012.43 1012.77 1013.08 1013.35 1013.56 1013.73 1013.86 1013.99 1014.14 1014.32 1014.53 1014.74 1014.95 1015.12 1015.21 1015.20 1015.08 1014.85 1014.55 1014.18 1013.79 1013.39 1013.03 1012.70 1012.41 1012.15 1011.92 1011.70 1011.49 1011.28
1004.95 1005.87 1006.81 1007.69 1008.47 1009.12 1009.63 1010.04 1010.37 1010.66 1010.96 1011.29 1011.64 1012.02 1012.40 1012.75 1013.05 1013.30 1013.49 1013.63 1013.76 1013.88 1014.03 1014.19 1014.38 1014.56 1014.72 1014.82 1014.84 1014.78 1014.62 1014.38 1014.08 1013.73 1013.37 1013.01 1012.67 1012.35 1012.06 1011.80 1011.55 1011.33 1011.12
1004.11 1005.05 1006.00 1006.91 1007.71 1008.40 1008.95 1009.40 1009.78 1010.12 1010.47 1010.84 1011.25 1011.68 1012.11 1012.51 1012.86 1013.15 1013.36 1013.52 1013.63 1013.74 1013.84 1013.97 1014.10 1014.25 1014.39 1014.49 1014.53 1014.51 1014.41 1014.23 1013.99 1013.70 1013.38 1013.05 1012.71 1012.39 1012.08 1011.79 1011.53 1011.30 1011.09
1003.45 1004.40 1005.35 1006.25 1007.06 1007.75 1008.33 1008.81 1009.22 1009.61 1010.01 1010.44 1010.91 1011.40 1011.89 1012.35 1012.75 1013.08 1013.32 1013.49 1013.60 1013.68 1013.75 1013.83 1013.92 1014.02 1014.12 1014.21 1014.26 1014.27 1014.21 1014.09 1013.92 1013.69 1013.42 1013.12 1012.82 1012.51 1012.21 1011.92 1011.66 1011.42 1011.21
1003.00 1003.93 1004.87 1005.75 1006.53 1007.21 1007.78 1008.27 1008.71 1009.14 1009.59 1010.07 1010.60 1011.16 1011.71 1012.23 1012.68 1013.05 1013.32 1013.51 1013.62 1013.68 1013.71 1013.74 1013.78 1013.84 1013.91 1013.97 1014.02 1014.04 1014.02 1013.95 1013.83 1013.66 1013.46 1013.22 1012.96 1012.69 1012.42 1012.15 1011.90 1011.67 1011.46
1002.75 1003.66 1004.56 1005.39 1006.13 1006.77 1007.32 1007.81 1008.26 1008.71 1009.20 1009.73 1010.32 1010.92 1011.53 1012.10 1012.60 1013.00 1013.31 1013.51 1013.62 1013.67 1013.68 1013.68 1013.68 1013.69 1013.72 1013.76 1013.80 1013.82 1013.82 1013.79 1013.72 1013.61 1013.47 1013.30 1013.10 1012.89 1012.66 1012.44 1012.21 1011.99 1011.78
1002.68 1003.57 1004.41 1005.18 1005.86 1006.45 1006.96 1007.42 1007.87 1008.34 1008.85 1009.42 1010.03 1010.68 1011.33 1011.93 1012.47 1012.91 1013.24 1013.46 1013.58 1013.63 1013.63 1013.61 1013.58 1013.56 1013.56 1013.57 1013.58 1013.60 1013.61 1013.60 1013.57 1013.52 1013.44 1013.33 1013.20 1013.05 1012.89 1012.71 1012.53 1012.33 1012.12
1002.78 1003.62 1004.40 1005.10 1005.71 1006.23 1006.70 1007.13 1007.57 1008.03 1008.55 1009.13 1009.77 1010.43 1011.09 1011.72 1012.27 1012.74 1013.09 1013.34 1013.48 1013.55 1013.55 1013.53 1013.49 1013.45 1013.42 1013.40 1013.40 1013.40 1013.40 1013.40 1013.40 1013.38 1013.35 1013.30 1013.24 1013.15 1013.05 1012.93 1012.78 1012.61 1012.42
1003.01 1003.78 1004.49 1005.12 1005.66 1006.13 1006.55 1006.95 1007.36 1007.82 1008.33 1008.91 1009.53 1010.19 1010.85 1011.48 1012.04 1012.51 1012.89 1013.16 1013.33 1013.43 1013.46 1013.45 1013.41 1013.37 1013.32 1013.29 1013.26 1013.24 1013.23 1013.22 1013.22 1013.22 1013.22 1013.22 1013.20 1013.17 1013.13 1013.05 1012.95 1012.81 1012.63
1003.31 1004.02 1004.67 1005.23 1005.71 1006.13 1006.51 1006.89 1007.28 1007.72 1008.21 1008.77 1009.37 1010.00 1010.64 1011.24 1011.80 1012.27 1012.66 1012.96 1013.17 1013.30 1013.37 1013.39 1013.37 1013.34 1013.29 1013.23 1013.18 1013.14 1013.10 1013.08 1013.07 1013.07 1013.08 1013.10 1013.12 1013.13 1013.12 1013.09 1013.02 1012.91 1012.76
1003.66 1004.31 1004.89 1005.40 1005.84 1006.23 1006.59 1006.95 1007.33 1007.75 1008.22 1008.74 1009.31 1009.90 1010.49 1011.07 1011.60 1012.06 1012.46 1012.78 1013.02 1013.20 1013.31 1013.36 1013.38 1013.36 1013.31 1013.24 1013.17 1013.10 1013.03 1012.98 1012.95 1012.94 1012.95 1012.98 1013.02 1013.05 1013.06 1013.06 1013.02 1012.93 1012.81
1004.02 1004.61 1005.15 1005.62 1006.04 1006.42 1006.78 1007.14 1007.51 1007.92 1008.37 1008.85 1009.37 1009.91 1010.45 1010.97 1011.47 1011.92 1012.31 1012.65 1012.92 1013.13 1013.28 1013.37 1013.41 1013.41 1013.37 1013.29 1013.20 1013.10 1013.01 1012.93 1012.88 1012.85 1012.85 1012.88 1012.91 1012.95 1012.98 1012.99 1012.97 1012.91 1012.81
1004.40 1004.93 1005.43 1005.89 1006.31 1006.69 1007.07 1007.44 1007.82 1008.22 1008.64 1009.09 1009.55 1010.03 1010.51 1010.98 1011.43 1011.85 1012.23 1012.57 1012.85 1013.09 1013.26 1013.38 1013.45 1013.45 1013.41 1013.33 1013.22 1013.11 1012.99 1012.89 1012.82 1012.78 1012.77 1012.79 1012.82 1012.86 1012.90 1012.91 1012.90 1012.86 1012.78
1004.78 1005.28 1005.76 1006.21 1006.64 1007.05 1007.44 1007.83 1008.22 1008.61 1009.01 1009.42 1009.83 1010.24 1010.66 1011.06 1011.46 1011.84 1012.20 1012.52 1012.81 1013.05 1013.23 1013.36 1013.42 1013.43 1013.38 1013.29 1013.18 1013.05 1012.92 1012.81 1012.73 1012.69 1012.68 1012.70 1012.74 1012.78 1012.82 1012.84 1012.83 1012.80 1012.73
1005.22 1005.68 1006.14 1006.59 1007.04 1007.47 1007.89 1008.29 1008.68 1009.06 1009.43 1009.79 1010.15 1010.50 1010.85 1011.19 1011.53 1011.86 1012.18 1012.48 1012.74 1012.96 1013.14 1013.25 1013.30 1013.29 1013.24 1013.13 1013.01 1012.87 1012.75 1012.65 1012.58 1012.55 1012.56 1012.59 1012.64 1012.70 1012.74 1012.76 1012.76 1012.73 1012.67
1005.74 1006.17 1006.61 1007.06 1007.51 1007.95 1008.37 1008.78 1009.16 1009.52 1009.85 1010.16 1010.46 1010.75 1011.03 1011.32 1011.60 1011.88 1012.15 1012.40 1012.62 1012.81 1012.94 1013.02 1013.05 1013.01 1012.93 1012.82 1012.69 1012.56 1012.45 1012.37 1012.33 1012.34 1012.38 1012.44 1012.52 1012.59 1012.65 1012.68 1012.68 1012.65 1012.59
1006.37 1006.77 1007.19 1007.62 1008.06 1008.48 1008.89 1009.27 1009.62 1009.93 1010.22 1010.48 1010.72 1010.94 1011.17 1011.39 1011.62 1011.84 1012.06 1012.26 1012.43 1012.57 1012.65 1012.68 1012.66 1012.59 1012.48 1012.35 1012.22 1012.11 1012.03 1011.99 1012.00 1012.05 1012.14 1012.25 1012.36 1012.46 1012.53 1012.57 1012.57 1012.54 1012.49
1007.13 1007.49 1007.87 1008.26 1008.66 1009.05 1009.41 1009.73 1010.03 1010.29 1010.51 1010.70 1010.88 1011.05 1011.22 1011.39 1011.56 1011.73 1011.90 1012.05 1012.16 1012.24 1012.27 1012.24 1012.17 1012.06 1011.93 1011.79 1011.66 1011.57 1011.53 1011.53 1011.60 1011.70 1011.85 1012.01 1012.16 1012.29 1012.38 1012.44 1012.44 1012.41 1012.36
1007.97 1008.28 1008.61 1008.95 1009.29 1009.60 1009.89 1010.14 1010.36 1010.54 1010.69 1010.82 1010.94 1011.05 1011.17 1011.29 1011.42 1011.55 1011.67 1011.77 1011.83 1011.85 1011.82 1011.75 1011.63 1011.49 1011.33 1011.19 1011.07 1011.01 1011.00 1011.06 1011.18 1011.34 1011.54 1011.74 1011.93 1012.10 1012.21 1012.28 1012.30 1012.27 1012.22
1008.83 1009.09 1009.36 1009.63 1009.88 1010.11 1010.31 1010.47 1010.59 1010.69 1010.76 1010.82 1010.88 1010.95 1011.02 1011.11 1011.20 1011.30 1011.38 1011.44 1011.45 1011.43 1011.35 1011.23 1011.08 1010.91 1010.74 1010.60 1010.51 1010.47 1010.50 1010.61 1010.77 1010.99 1011.23 1011.48 1011.70 1011.89 1012.03 1012.11 1012.13 1012.12 1012.07
1009.61 1009.82 1010.02 1010.21 1010.38 1010.51 1010.61 1010.67 1010.71 1010.72 1010.72 1010.71 1010.72 1010.74 1010.78 1010.84 1010.91 1010.98 1011.03 1011.05 1011.04 1010.98 1010.87 1010.72 1010.55 1010.37 1010.20 1010.07 1010.00 1009.99 1010.06 1010.21 1010.42 1010.67 1010.94 1011.22 1011.47 1011.67 1011.83 1011.92 1011.96 1011.95 1011.92
1010.22 1010.38 1010.52 1010.63 1010.71 1010.76 1010.77 1010.74 1010.69 1010.62 1010.56 1010.50 1010.46 1010.45 1010.47 1010.51 1010.56 1010.60 1010.63 1010.63 1010.59 1010.51 1010.38 1010.22 1010.04 1009.86 1009.70 1009.59 1009.55 1009.57 1009.68 1009.85 1010.09 1010.37 1010.66 1010.95 1011.21 1011.43 1011.59 1011.70 1011.75 1011.76 1011.75
1010.58 1010.69 1010.78 1010.84 1010.85 1010.82 1010.75 1010.65 1010.54 1010.41 1010.30 1010.20 1010.14 1010.10 1010.10 1010.12 1010.15 1010.17 1010.19 1010.17 1010.11 1010.01 1009.87 1009.71 1009.53 1009.36 1009.23 1009.14 1009.12 1009.18 1009.31 1009.51 1009.76 1010.05 1010.36 1010.65 1010.91 1011.13 1011.30 1011.41 1011.48 1011.52 1011.54
1010.67 1010.76 1010.81 1010.81 1010.78 1010.70 1010.58 1010.44 1010.28 1010.12 1009.97 1009.85 1009.77 1009.71 1009.69 1009.69 1009.70 1009.71 1009.70 1009.66 1009.58 1009.47 1009.33 1009.16 1009.00 1008.85 1008.73 1008.67 1008.68 1008.76 1008.91 1009.13 1009.39 1009.68 1009.98 1010.26 1010.52 1010.73 1010.90 1011.03 1011.12 1011.18 1011.23
1010.54 1010.60 1010.62 1010.60 1010.54 1010.43 1010.29 1010.12 1009.94 1009.77 1009.61 1009.49 1009.39 1009.32 1009.29 1009.27 1009.25 1009.23 1009.20 1009.13 1009.03 1008.90 1008.74 1008.58 1008.42 1008.29 1008.19 1008.16 1008.19 1008.29 1008.45 1008.67 1008.93 1009.21 1009.49 1009.76 1010.00 1010.21 1010.38 1010.52 1010.63 1010.72 1010.80
1010.26 1010.31 1010.32 1010.28 1010.20 1010.09 1009.94 1009.77 1009.60 1009.43 1009.28 1009.15 1009.05 1008.97 1008.92 1008.88 1008.84 1008.78 1008.71 1008.61 1008.48 1008.32 1008.15 1007.98 1007.82 1007.70 1007.62 1007.60 1007.64 1007.75 1007.92 1008.13 1008.37 1008.64 1008.90 1009.14 1009.37 1009.57 1009.73 1009.87 1009.99 1010.11 1010.22
Thickness
5771 5768 5765 5762 5759 5757 5754 5752 5750 5748 5746 5744 5742 5739 5736 5735 5734 5732 5730 5728 5726 5724 5724 5723 5721 5721 5719 5718 5717 5715 5714 5712 5709 5712 5712 5713 5712 5712 5712 5711 5710 5710 5709
5768 5764 5761 5759 5756 5753 5751 5749 5747 5745 5742 5741 5738 5736 5734 5733 5731 5729 5727 5725 5723 5722 5721 5719 5718 5718 5716 5715 5714 5713 5712 5711 5709 5707 5708 5708 5708 5708 5708 5707 5707 5706 5705
5765 5760 5756 5754 5751 5749 5747 5745 5743 5741 5738 5736 5735 5732 5731 5729 5727 5725 5723 5722 5721 5719 5718 5717 5716 5714 5712 5711 5710 5710 5709 5708 5707 5705 5704 5704 5704 5703 5702 5701 5701 5700 5699
5760 5756 5751 5749 5747 5745 5744 5741 5739 5737 5734 5732 5731 5729 5728 5726 5725 5722 5719 5717 5716 5716 5715 5714 5713 5712 5710 5709 5707 5706 5705 5703 5702 5701 5700 5700 5699 5698 5696 5695 5693 5693 5693
5755 5750 5747 5745 5743 5742 5739 5737 5734 5732 5730 5728 5726 5724 5724 5723 5722 5719 5716 5714 5712 5711 5711 5710 5710 5709 5708 5706 5704 5703 5701 5699 5698 5696 5695 5694 5693 5692 5691 5690 5688 5687 5686
5749 5745 5742 5740 5738 5736 5734 5732 5730 5728 5725 5723 5722 5720 5719 5718 5717 5715 5713 5710 5708 5706 5706 5705 5705 5705 5704 5703 5701 5700 5699 5696 5695 5693 5692 5690 5690 5689 5687 5684 5682 5680 5679
5742 5739 5736 5735 5732 5730 5728 5725 5724 5722 5720 5718 5717 5715 5714 5713 5711 5709 5708 5706 5704 5702 5701 5700 5700 5700 5698 5697 5696 5695 5694 5693 5694 5692 5689 5688 5687 5686 5683 5679 5676 5675 5674
5735 5733 5730 5728 5726 5724 5721 5719 5717 5716 5714 5713 5711 5710 5709 5708 5706 5704 5702 5700 5699 5698 5696 5695 5694 5693 5692 5690 5689 5688 5688 5687 5687 5687 5686 5685 5684 5682 5679 5677 5673 5669 5667
5727 5726 5724 5722 5719 5716 5714 5713 5712 5710 5709 5708 5706 5704 5703 5702 5699 5697 5695 5693 5692 5691 5690 5689 5688 5687 5686 5684 5682 5681 5680 5680 5680 5679 5678 5678 5677 5675 5673 5669 5665 5662 5660
5719 5718 5716 5714 5711 5710 5708 5706 5705 5704 5702 5701 5699 5698 5696 5695 5693 5691 5688 5686 5684 5684 5683 5682 5681 5680 5679 5677 5676 5674 5673 5673 5672 5671 5669 5669 5668 5666 5665 5663 5661 5657 5655
5711 5710 5707 5705 5703 5703 5701 5699 5697 5696 5693 5691 5690 5689 5689 5688 5687 5684 5682 5680 5678 5676 5675 5675 5674 5672 5671 5670 5669 5668 5667 5666 5664 5663 5661 5660 5659 5658 5657 5655 5653 5651 5649
5702 5700 5699 5697 5696 5695 5693 5691 5690 5688 5685 5682 5680 5679 5680 5680 5679 5677 5675 5674 5672 5670 5668 5667 5666 5665 5663 5661 5661 5661 5659 5656 5655 5653 5653 5652 5651 5650 5649 5647 5645 5644 5643
5692 5691 5689 5687 5685 5684 5684 5682 5680 5678 5676 5673 5671 5671 5671 5671 5670 5669 5667 5665 5665 5663 5661 5660 5658 5657 5655 5654 5653 5652 5650 5648 5646 5645 5646 5645 5644 5642 5640 5638 5636 5635 5633
5682 5680 5679 5678 5677 5676 5675 5673 5671 5669 5667 5665 5663 5662 5662 5662 5661 5659 5658 5656 5654 5653 5652 5651 5649 5648 5647 5646 5645 5643 5641 5640 5638 5637 5638 5637 5635 5633 5631 5629 5627 5626 5624
5672 5670 5669 5667 5666 5665 5664 5662 5662 5661 5659 5656 5655 5653 5653 5653 5652 5649 5648 5647 5645 5643 5641 5641 5640 5639 5638 5637 5636 5635 5633 5631 5630 5629 5628 5628 5627 5625 5623 5621 5619 5617 5616
5662 5661 5659 5658 5657 5656 5654 5652 5652 5650 5648 5646 5644 5643 5644 5643 5641 5640 5639 5637 5634 5632 5630 5630 5630 5629 5629 5628 5627 5626 5624 5623 5622 5621 5620 5619 5618 5617 5615 5613 5611 5609 5609
5654 5652 5651 5649 5648 5646 5645 5643 5641 5640 5639 5637 5636 5635 5634 5632 5631 5629 5628 5626 5623 5621 5622 5622 5621 5620 5619 5618 5618 5617 5616 5614 5613 5612 5611 5610 5609 5608 5607 5605 5604 5602 5600
5645 5644 5642 5640 5639 5637 5637 5635 5634 5632 5630 5629 5627 5625 5624 5622 5621 5620 5618 5616 5614 5613 5613 5613 5612 5611 5611 5609 5608 5606 5606 5604 5603 5602 5601 5600 5600 5599 5598 5597 5596 5595 5593
5635 5634 5632 5632 5630 5629 5628 5627 5625 5623 5621 5619 5618 5616 5614 5613 5611 5610 5608 5608 5607 5606 5604 5603 5603 5603 5602 5601 5599 5597 5597 5595 5594 5592 5592 5591 5590 5590 5589 5588 5587 5585 5584
5626 5625 5625 5623 5622 5621 5619 5617 5615 5613 5611 5610 5609 5608 5606 5604 5603 5601 5599 5598 5598 5597 5596 5596 5595 5594 5593 5593 5591 5589 5588 5587 5586 5584 5583 5582 5582 5581 5581 5580 5578 5577 5577
5618 5617 5617 5615 5613 5612 5610 5608 5606 5604 5602 5601 5600 5598 5596 5595 5594 5592 5591 5590 5589 5588 5587 5587 5586 5585 5584 5582 5582 5581 5580 5579 5578 5577 5576 5575 5574 5573 5572 5571 5569 5569 5568
5610 5609 5608 5606 5604 5603 5601 5600 5598 5596 5593 5591 5590 5588 5586 5586 5585 5583 5582 5581 5580 5579 5578 5577 5577 5576 5574 5574 5573 5572 5572 5571 5570 5569 5568 5567 5565 5564 5563 5562 5561 5560 5560
5602 5602 5600 5598 5596 5595 5594 5592 5589 5587 5584 5581 5580 5579 5577 5576 5575 5574 5572 5571 5571 5570 5569 5568 5568 5567 5566 5565 5564 5563 5563 5562 5561 5561 5560 5559 5558 5556 5555 5554 5553 5552 5552
5595 5594 5592 5590 5589 5587 5585 5583 5581 5579 5576 5574 5572 5570 5569 5568 5566 5565 5563 5562 5561 5561 5560 5559 5558 5557 5557 5556 5555 5554 5553 5552 5552 5551 5551 5550 5549 5548 5547 5546 5545 5545 5544
5587 5586 5585 5583 5581 5580 5578 5576 5573 5571 5568 5566 5564 5563 5561 5559 5558 5556 5555 5553 5552 5551 5550 5549 5548 5547 5547 5546 5545 5544 5543 5542 5541 5541 5541 5540 5540 5539 5539 5538 5537 5536 5535
5580 5579 5577 5576 5574 5572 5570 5569 5567 5565 5562 5560 5558 5556 5553 5551 5549 5547 5546 5544 5543 5542 5541 5539 5538 5537 5536 5535 5535 5534 5533 5533 5532 5531 5531 5531 5531 5530 5530 5529 5529 5528 5527